Wetterdaten: Mittwoch, 23.10.2013
Datum Zeit Temperatur Luftfeuchte Luftdruck Regen Wind Richtung Richtung Taupunkt Windchill Windben
23.10.2013 00:00 16,1 C 50 % 1013,8 hPa 0,0 l/m 3,4 km/h (1 Bft) S 180 5,7 C 17,0 C 2,1 km/h (1 Bft)
23.10.2013 00:05 16,0 C 50 % 1013,8 hPa 0,0 l/m 2,6 km/h (1 Bft) NO 45 5,6 C 17,1 C 3,2 km/h (1 Bft)
23.10.2013 00:10 16,8 C 48 % 1013,8 hPa 0,0 l/m 3,1 km/h (1 Bft) O-NO 67 5,7 C 17,2 C 5,8 km/h (2 Bft)
23.10.2013 00:15 16,6 C 49 % 1013,8 hPa 0,0 l/m 3,7 km/h (1 Bft) N-NW 337 5,8 C 17,6 C 3,2 km/h (1 Bft)
23.10.2013 00:20 16,5 C 49 % 1013,8 hPa 0,0 l/m 2,9 km/h (1 Bft) N-NO 22 5,8 C 17,9 C 7,6 km/h (2 Bft)
23.10.2013 00:23 16,5 C 49 % 1013,6 hPa 0,0 l/m 2,4 km/h (1 Bft) NO 45 5,8 C 17,7 C 5,6 km/h (1 Bft)
23.10.2013 00:25 16,5 C 49 % 1013,6 hPa 0,0 l/m 2,4 km/h (1 Bft) NO 45 5,8 C 17,7 C 5,6 km/h (1 Bft)
23.10.2013 00:30 16,5 C 49 % 1013,6 hPa 0,0 l/m 2,6 km/h (1 Bft) O-SO 112 5,8 C 17,7 C 4,5 km/h (1 Bft)
23.10.2013 00:35 16,6 C 49 % 1013,6 hPa 0,0 l/m 2,7 km/h (1 Bft) S-SW 202 5,8 C 17,9 C 1,6 km/h (1 Bft)
23.10.2013 00:40 16,6 C 48 % 1013,6 hPa 0,0 l/m 2,6 km/h (1 Bft) NO 45 5,5 C 17,9 C 6,6 km/h (2 Bft)
23.10.2013 00:45 17,2 C 47 % 1013,8 hPa 0,0 l/m 3,2 km/h (1 Bft) N-NO 22 5,8 C 18,1 C 7,9 km/h (2 Bft)
23.10.2013 00:50 17,0 C 47 % 1013,8 hPa 0,0 l/m 3,7 km/h (1 Bft) W-SW 247 5,6 C 18,0 C 3,5 km/h (1 Bft)
23.10.2013 00:55 16,8 C 48 % 1013,8 hPa 0,0 l/m 3,1 km/h (1 Bft) O 90 5,7 C 18,3 C 5,0 km/h (1 Bft)
23.10.2013 01:00 17,1 C 46 % 1013,8 hPa 0,0 l/m 3,1 km/h (1 Bft) N 360 5,4 C 18,3 C 3,4 km/h (1 Bft)
23.10.2013 01:05 16,8 C 48 % 1013,4 hPa 0,0 l/m 3,4 km/h (1 Bft) S 180 5,7 C 18,2 C 1,9 km/h (1 Bft)
23.10.2013 01:10 16,9 C 48 % 1013,4 hPa 0,0 l/m 3,1 km/h (1 Bft) NO 45 5,8 C 18,2 C 5,8 km/h (2 Bft)
23.10.2013 01:15 18,1 C 44 % 1013,4 hPa 0,0 l/m 2,9 km/h (1 Bft) W 270 5,7 C 18,1 C 7,9 km/h (2 Bft)
23.10.2013 01:20 17,8 C 45 % 1013,4 hPa 0,0 l/m 2,7 km/h (1 Bft) O 90 5,7 C 18,5 C 4,2 km/h (1 Bft)
23.10.2013 01:25 17,8 C 45 % 1013,5 hPa 0,0 l/m 3,2 km/h (1 Bft) S 180 5,7 C 18,4 C 9,5 km/h (2 Bft)
23.10.2013 01:30 17,4 C 46 % 1013,5 hPa 0,0 l/m 2,9 km/h (1 Bft) N 360 5,7 C 18,5 C 0,0 km/h (0 Bft)
23.10.2013 01:35 17,7 C 46 % 1013,5 hPa 0,0 l/m 3,4 km/h (1 Bft) N 360 5,9 C 18,6 C 6,4 km/h (2 Bft)
23.10.2013 01:40 17,7 C 45 % 1013,5 hPa 0,0 l/m 4,0 km/h (1 Bft) O-SO 112 5,6 C 18,6 C 7,4 km/h (2 Bft)
23.10.2013 01:45 17,5 C 45 % 1013,4 hPa 0,0 l/m 5,1 km/h (1 Bft) N-NO 22 5,4 C 18,9 C 13,4 km/h (3 Bft)
23.10.2013 01:50 17,5 C 45 % 1013,4 hPa 0,0 l/m 5,0 km/h (1 Bft) O 90 5,4 C 18,9 C 5,5 km/h (1 Bft)
23.10.2013 01:55 17,1 C 47 % 1013,4 hPa 0,0 l/m 3,5 km/h (1 Bft) S-SW 202 5,7 C 18,5 C 7,1 km/h (2 Bft)
23.10.2013 02:00 17,6 C 46 % 1013,4 hPa 0,0 l/m 3,4 km/h (1 Bft) O 90 5,8 C 18,5 C 3,2 km/h (1 Bft)
23.10.2013 02:05 17,1 C 46 % 1013,6 hPa 0,0 l/m 2,4 km/h (1 Bft) O 90 5,4 C 18,5 C 0,0 km/h (0 Bft)
23.10.2013 02:10 17,1 C 47 % 1013,6 hPa 0,0 l/m 1,6 km/h (1 Bft) O 90 5,7 C 18,1 C 3,7 km/h (1 Bft)
23.10.2013 02:15 17,4 C 46 % 1013,6 hPa 0,0 l/m 2,4 km/h (1 Bft) O 90 5,7 C 17,8 C 3,9 km/h (1 Bft)
23.10.2013 02:20 17,0 C 47 % 1013,6 hPa 0,0 l/m 2,4 km/h (1 Bft) N-NW 337 5,6 C 17,9 C 3,1 km/h (1 Bft)
23.10.2013 02:25 18,0 C 44 % 1013,5 hPa 0,0 l/m 3,7 km/h (1 Bft) S 180 5,6 C 18,2 C 8,2 km/h (2 Bft)
23.10.2013 02:30 17,9 C 45 % 1013,5 hPa 0,0 l/m 5,0 km/h (1 Bft) S 180 5,8 C 18,4 C 6,1 km/h (2 Bft)
23.10.2013 02:35 17,3 C 46 % 1013,5 hPa 0,0 l/m 4,3 km/h (1 Bft) NO 45 5,6 C 18,7 C 5,3 km/h (1 Bft)
23.10.2013 02:40 17,3 C 47 % 1013,5 hPa 0,0 l/m 3,5 km/h (1 Bft) S-SO 157 5,9 C 18,6 C 2,9 km/h (1 Bft)
23.10.2013 02:45 17,0 C 47 % 1013,4 hPa 0,0 l/m 3,1 km/h (1 Bft) S 180 5,6 C 18,5 C 2,9 km/h (1 Bft)
23.10.2013 02:50 17,1 C 48 % 1013,4 hPa 0,0 l/m 3,4 km/h (1 Bft) S 180 6,0 C 18,5 C 9,3 km/h (2 Bft)
23.10.2013 02:55 17,0 C 48 % 1013,4 hPa 0,0 l/m 2,9 km/h (1 Bft) NO 45 5,9 C 18,8 C 0,0 km/h (0 Bft)
23.10.2013 03:00 17,2 C 48 % 1013,4 hPa 0,0 l/m 2,9 km/h (1 Bft) S 180 6,1 C 18,7 C 7,1 km/h (2 Bft)
23.10.2013 03:05 17,4 C 47 % 1013,3 hPa 0,0 l/m 2,4 km/h (1 Bft) O-NO 67 6,0 C 18,7 C 1,6 km/h (1 Bft)
23.10.2013 03:10 17,0 C 48 % 1013,3 hPa 0,0 l/m 2,3 km/h (1 Bft) SO 135 5,9 C 18,3 C 6,9 km/h (2 Bft)
23.10.2013 03:15 16,9 C 49 % 1013,3 hPa 0,0 l/m 2,3 km/h (1 Bft) NW 315 6,1 C 18,3 C 3,7 km/h (1 Bft)
23.10.2013 03:20 17,3 C 48 % 1013,3 hPa 0,0 l/m 2,7 km/h (1 Bft) NO 45 6,2 C 18,4 C 6,0 km/h (2 Bft)
23.10.2013 03:25 17,5 C 47 % 1013,3 hPa 0,0 l/m 3,2 km/h (1 Bft) O 90 6,1 C 18,6 C 5,0 km/h (1 Bft)
23.10.2013 03:30 17,3 C 47 % 1013,3 hPa 0,0 l/m 2,7 km/h (1 Bft) S 180 5,9 C 18,6 C 3,1 km/h (1 Bft)
23.10.2013 03:35 17,2 C 47 % 1013,3 hPa 0,0 l/m 2,4 km/h (1 Bft) NO 45 5,8 C 18,5 C 4,5 km/h (1 Bft)
23.10.2013 03:40 17,4 C 47 % 1013,3 hPa 0,0 l/m 3,4 km/h (1 Bft) NO 45 6,0 C 18,9 C 4,5 km/h (1 Bft)
23.10.2013 03:45 17,1 C 48 % 1013,1 hPa 0,0 l/m 2,7 km/h (1 Bft) O 90 6,0 C 18,8 C 3,4 km/h (1 Bft)
23.10.2013 03:50 17,4 C 48 % 1013,1 hPa 0,0 l/m 1,8 km/h (1 Bft) O-SO 112 6,3 C 18,7 C 0,0 km/h (0 Bft)
23.10.2013 03:55 17,1 C 48 % 1013,1 hPa 0,0 l/m 2,3 km/h (1 Bft) S 180 6,0 C 18,4 C 2,6 km/h (1 Bft)
23.10.2013 04:00 17,0 C 48 % 1013,1 hPa 0,0 l/m 1,9 km/h (1 Bft) S-SW 202 5,9 C 18,5 C 0,0 km/h (0 Bft)
23.10.2013 04:05 17,6 C 47 % 1013,2 hPa 0,0 l/m 2,3 km/h (1 Bft) O-NO 67 6,2 C 18,5 C 2,9 km/h (1 Bft)
23.10.2013 04:10 18,0 C 46 % 1013,2 hPa 0,0 l/m 2,7 km/h (1 Bft) SW 225 6,2 C 18,5 C 2,3 km/h (1 Bft)
23.10.2013 04:15 17,9 C 46 % 1013,2 hPa 0,0 l/m 3,1 km/h (1 Bft) NO 45 6,1 C 18,5 C 3,9 km/h (1 Bft)
23.10.2013 04:20 18,1 C 44 % 1013,2 hPa 0,0 l/m 2,7 km/h (1 Bft) NO 45 5,7 C 18,4 C 5,1 km/h (1 Bft)
23.10.2013 04:25 18,2 C 45 % 1013,0 hPa 0,0 l/m 3,4 km/h (1 Bft) NO 45 6,1 C 18,3 C 3,7 km/h (1 Bft)
23.10.2013 04:30 17,9 C 44 % 1013,0 hPa 0,0 l/m 3,7 km/h (1 Bft) O-NO 67 5,5 C 18,3 C 3,1 km/h (1 Bft)
23.10.2013 04:35 18,4 C 43 % 1013,0 hPa 0,0 l/m 4,5 km/h (1 Bft) O-SO 112 5,6 C 18,1 C 4,5 km/h (1 Bft)
23.10.2013 04:40 17,5 C 46 % 1013,0 hPa 0,0 l/m 4,0 km/h (1 Bft) N-NO 22 5,8 C 18,1 C 0,0 km/h (0 Bft)
23.10.2013 04:45 17,9 C 45 % 1012,4 hPa 0,0 l/m 2,3 km/h (1 Bft) N-NO 22 5,8 C 17,8 C 4,2 km/h (1 Bft)
23.10.2013 04:50 17,8 C 45 % 1012,4 hPa 0,0 l/m 2,3 km/h (1 Bft) N-NW 337 5,7 C 18,3 C 2,9 km/h (1 Bft)
23.10.2013 04:55 17,5 C 46 % 1012,4 hPa 0,0 l/m 2,7 km/h (1 Bft) O 90 5,8 C 18,4 C 0,0 km/h (0 Bft)
23.10.2013 05:00 17,7 C 46 % 1012,4 hPa 0,0 l/m 2,1 km/h (1 Bft) O-SO 112 5,9 C 18,3 C 0,0 km/h (0 Bft)
23.10.2013 05:05 18,0 C 45 % 1012,8 hPa 0,0 l/m 3,9 km/h (1 Bft) N-NO 22 5,9 C 18,1 C 3,9 km/h (1 Bft)
23.10.2013 05:10 18,1 C 44 % 1012,8 hPa 0,0 l/m 4,5 km/h (1 Bft) NO 45 5,7 C 18,0 C 3,5 km/h (1 Bft)
23.10.2013 05:15 18,0 C 46 % 1012,8 hPa 0,0 l/m 4,3 km/h (1 Bft) SO 135 6,2 C 18,1 C 0,0 km/h (0 Bft)
23.10.2013 05:20 16,9 C 49 % 1012,8 hPa 0,0 l/m 3,9 km/h (1 Bft) NO 45 6,1 C 17,9 C 4,2 km/h (1 Bft)
23.10.2013 05:25 15,8 C 53 % 1012,9 hPa 0,0 l/m 1,4 km/h (1 Bft) O 90 6,2 C 17,3 C 2,6 km/h (1 Bft)
23.10.2013 05:30 16,1 C 50 % 1012,9 hPa 0,0 l/m 1,6 km/h (1 Bft) O-SO 112 5,7 C 16,9 C 3,7 km/h (1 Bft)
23.10.2013 05:35 16,8 C 52 % 1012,9 hPa 0,0 l/m 3,2 km/h (1 Bft) N-NW 337 6,9 C 17,1 C 5,3 km/h (1 Bft)
23.10.2013 05:40 16,2 C 51 % 1012,9 hPa 0,0 l/m 3,9 km/h (1 Bft) O 90 6,1 C 17,1 C 3,4 km/h (1 Bft)
23.10.2013 05:45 16,3 C 53 % 1012,9 hPa 0,0 l/m 3,1 km/h (1 Bft) S-SO 157 6,7 C 17,0 C 4,2 km/h (1 Bft)
23.10.2013 05:50 16,1 C 52 % 1012,9 hPa 0,0 l/m 2,6 km/h (1 Bft) SO 135 6,2 C 16,9 C 5,5 km/h (1 Bft)
23.10.2013 05:55 15,7 C 56 % 1012,9 hPa 0,0 l/m 3,1 km/h (1 Bft) N 360 6,9 C 16,7 C 4,8 km/h (1 Bft)
23.10.2013 06:00 16,4 C 52 % 1012,9 hPa 0,0 l/m 3,2 km/h (1 Bft) S-SW 202 6,5 C 16,6 C 0,0 km/h (0 Bft)
23.10.2013 06:05 16,3 C 50 % 1013,1 hPa 0,0 l/m 3,2 km/h (1 Bft) O 90 5,9 C 16,6 C 7,9 km/h (2 Bft)
23.10.2013 06:10 16,3 C 50 % 1013,1 hPa 0,0 l/m 2,4 km/h (1 Bft) NO 45 5,9 C 17,1 C 5,3 km/h (1 Bft)
23.10.2013 06:15 17,0 C 49 % 1013,1 hPa 0,0 l/m 2,7 km/h (1 Bft) N 360 6,2 C 17,2 C 0,0 km/h (0 Bft)
23.10.2013 06:20 16,3 C 50 % 1013,1 hPa 0,0 l/m 2,1 km/h (1 Bft) S 180 5,9 C 17,2 C 1,8 km/h (1 Bft)
23.10.2013 06:23 16,8 C 50 % 1013,3 hPa 0,0 l/m 1,3 km/h (1 Bft) W-NW 292 6,3 C 17,3 C 0,0 km/h (0 Bft)
23.10.2013 06:25 16,8 C 50 % 1013,3 hPa 0,0 l/m 1,3 km/h (1 Bft) W-NW 292 6,3 C 17,3 C 0,0 km/h (0 Bft)
23.10.2013 06:30 16,7 C 50 % 1013,3 hPa 0,0 l/m 2,3 km/h (1 Bft) O 90 6,2 C 17,3 C 5,5 km/h (1 Bft)
23.10.2013 06:35 16,5 C 50 % 1013,3 hPa 0,0 l/m 2,4 km/h (1 Bft) S 180 6,0 C 17,3 C 2,1 km/h (1 Bft)
23.10.2013 06:40 16,3 C 50 % 1013,3 hPa 0,0 l/m 2,7 km/h (1 Bft) W-SW 247 5,9 C 17,3 C 6,1 km/h (2 Bft)
23.10.2013 06:45 17,0 C 49 % 1012,9 hPa 0,0 l/m 2,9 km/h (1 Bft) O-NO 67 6,2 C 17,6 C 5,0 km/h (1 Bft)
23.10.2013 06:50 17,7 C 47 % 1012,9 hPa 0,0 l/m 3,1 km/h (1 Bft) N 360 6,2 C 17,9 C 2,7 km/h (1 Bft)
23.10.2013 06:55 18,1 C 46 % 1012,9 hPa 0,0 l/m 2,9 km/h (1 Bft) W-NW 292 6,3 C 18,7 C 1,9 km/h (1 Bft)
23.10.2013 07:00 18,1 C 45 % 1012,9 hPa 0,0 l/m 2,7 km/h (1 Bft) S 180 6,0 C 18,9 C 1,6 km/h (1 Bft)
23.10.2013 07:05 18,2 C 46 % 1013,1 hPa 0,0 l/m 3,1 km/h (1 Bft) N 360 6,4 C 19,0 C 4,7 km/h (1 Bft)
23.10.2013 07:10 17,6 C 47 % 1013,1 hPa 0,0 l/m 3,7 km/h (1 Bft) O-NO 67 6,2 C 19,1 C 5,5 km/h (1 Bft)
23.10.2013 07:15 17,3 C 49 % 1013,1 hPa 0,0 l/m 3,1 km/h (1 Bft) N-NW 337 6,5 C 18,9 C 2,6 km/h (1 Bft)
23.10.2013 07:20 16,6 C 50 % 1013,1 hPa 0,0 l/m 2,9 km/h (1 Bft) NO 45 6,1 C 18,5 C 7,4 km/h (2 Bft)
23.10.2013 07:25 16,3 C 50 % 1013,4 hPa 0,0 l/m 3,1 km/h (1 Bft) N 360 5,9 C 18,1 C 3,4 km/h (1 Bft)
23.10.2013 07:30 16,5 C 51 % 1013,4 hPa 0,0 l/m 3,1 km/h (1 Bft) NO 45 6,3 C 18,0 C 2,1 km/h (1 Bft)
23.10.2013 07:35 16,3 C 51 % 1013,4 hPa 0,0 l/m 2,6 km/h (1 Bft) N-NW 337 6,1 C 17,9 C 0,0 km/h (0 Bft)
23.10.2013 07:40 16,3 C 50 % 1013,4 hPa 0,0 l/m 2,3 km/h (1 Bft) N-NW 337 5,9 C 17,7 C 5,8 km/h (2 Bft)
23.10.2013 07:45 16,4 C 51 % 1013,4 hPa 0,0 l/m 2,3 km/h (1 Bft) NW 315 6,2 C 17,9 C 2,9 km/h (1 Bft)
23.10.2013 07:50 16,4 C 51 % 1013,4 hPa 0,0 l/m 2,6 km/h (1 Bft) N 360 6,2 C 17,9 C 3,4 km/h (1 Bft)
23.10.2013 07:55 16,4 C 52 % 1013,4 hPa 0,0 l/m 2,4 km/h (1 Bft) N-NO 22 6,5 C 17,9 C 0,0 km/h (0 Bft)
23.10.2013 08:00 16,2 C 52 % 1013,4 hPa 0,0 l/m 1,9 km/h (1 Bft) W-NW 292 6,3 C 17,7 C 2,9 km/h (1 Bft)
23.10.2013 08:05 15,9 C 55 % 1013,4 hPa 0,0 l/m 1,3 km/h (1 Bft) N-NW 337 6,9 C 17,5 C 2,7 km/h (1 Bft)
23.10.2013 08:10 16,0 C 53 % 1013,4 hPa 0,0 l/m 1,4 km/h (1 Bft) NO 45 6,4 C 17,5 C 0,0 km/h (0 Bft)
23.10.2013 08:15 16,0 C 53 % 1013,4 hPa 0,0 l/m 1,9 km/h (1 Bft) NO 45 6,4 C 17,5 C 6,1 km/h (2 Bft)
23.10.2013 08:20 16,0 C 54 % 1013,4 hPa 0,0 l/m 2,4 km/h (1 Bft) NO 45 6,7 C 17,5 C 2,1 km/h (1 Bft)
23.10.2013 08:25 15,9 C 55 % 1013,4 hPa 0,0 l/m 2,3 km/h (1 Bft) S-SW 202 6,9 C 17,5 C 3,1 km/h (1 Bft)
23.10.2013 08:30 16,3 C 53 % 1013,4 hPa 0,0 l/m 1,8 km/h (1 Bft) O-NO 67 6,7 C 17,5 C 1,6 km/h (1 Bft)
23.10.2013 08:35 16,1 C 53 % 1013,4 hPa 0,0 l/m 1,1 km/h (1 Bft) NO 45 6,5 C 17,5 C 2,1 km/h (1 Bft)
23.10.2013 08:40 16,3 C 54 % 1013,4 hPa 0,0 l/m 1,3 km/h (1 Bft) O 90 7,0 C 17,4 C 7,4 km/h (2 Bft)
23.10.2013 08:45 16,2 C 54 % 1013,6 hPa 0,0 l/m 2,3 km/h (1 Bft) W-NW 292 6,9 C 17,6 C 2,3 km/h (1 Bft)
23.10.2013 08:50 16,3 C 54 % 1013,6 hPa 0,0 l/m 2,9 km/h (1 Bft) W-NW 292 7,0 C 17,7 C 4,2 km/h (1 Bft)
23.10.2013 08:55 16,4 C 54 % 1013,6 hPa 0,0 l/m 2,6 km/h (1 Bft) N 360 7,1 C 17,9 C 2,7 km/h (1 Bft)
23.10.2013 09:00 16,5 C 54 % 1013,6 hPa 0,0 l/m 2,6 km/h (1 Bft) NO 45 7,2 C 17,9 C 6,1 km/h (2 Bft)
23.10.2013 09:05 16,7 C 54 % 1013,9 hPa 0,0 l/m 2,7 km/h (1 Bft) W-NW 292 7,3 C 17,9 C 4,8 km/h (1 Bft)
23.10.2013 09:10 16,5 C 54 % 1013,9 hPa 0,0 l/m 3,1 km/h (1 Bft) NO 45 7,2 C 18,0 C 5,0 km/h (1 Bft)
23.10.2013 09:15 16,7 C 54 % 1013,9 hPa 0,0 l/m 3,4 km/h (1 Bft) O-NO 67 7,3 C 18,1 C 6,0 km/h (2 Bft)
23.10.2013 09:20 16,8 C 53 % 1013,9 hPa 0,0 l/m 3,1 km/h (1 Bft) N-NW 337 7,2 C 18,2 C 2,9 km/h (1 Bft)
23.10.2013 09:25 16,8 C 53 % 1013,8 hPa 0,0 l/m 2,3 km/h (1 Bft) W-SW 247 7,2 C 18,2 C 2,9 km/h (1 Bft)
23.10.2013 09:30 16,8 C 53 % 1013,8 hPa 0,0 l/m 2,4 km/h (1 Bft) W-SW 247 7,2 C 18,1 C 3,5 km/h (1 Bft)
23.10.2013 09:35 16,8 C 53 % 1013,8 hPa 0,0 l/m 2,9 km/h (1 Bft) O-NO 67 7,2 C 18,2 C 1,8 km/h (1 Bft)
23.10.2013 09:40 16,7 C 54 % 1013,8 hPa 0,0 l/m 2,1 km/h (1 Bft) NO 45 7,3 C 18,1 C 5,6 km/h (1 Bft)
23.10.2013 09:45 16,8 C 54 % 1013,9 hPa 0,0 l/m 2,1 km/h (1 Bft) W 270 7,4 C 18,4 C 4,5 km/h (1 Bft)
23.10.2013 09:50 16,7 C 55 % 1013,9 hPa 0,0 l/m 2,6 km/h (1 Bft) W-NW 292 7,6 C 18,5 C 3,9 km/h (1 Bft)
23.10.2013 09:55 16,8 C 54 % 1013,9 hPa 0,0 l/m 2,4 km/h (1 Bft) N 360 7,4 C 18,5 C 0,0 km/h (0 Bft)
23.10.2013 10:00 16,9 C 54 % 1013,9 hPa 0,0 l/m 1,9 km/h (1 Bft) NO 45 7,5 C 18,5 C 0,0 km/h (0 Bft)
23.10.2013 10:05 17,0 C 54 % 1014,4 hPa 0,0 l/m 1,3 km/h (1 Bft) S-SO 157 7,6 C 18,5 C 1,6 km/h (1 Bft)
23.10.2013 10:10 17,0 C 54 % 1014,4 hPa 0,0 l/m 1,9 km/h (1 Bft) S 180 7,6 C 18,6 C 4,5 km/h (1 Bft)
23.10.2013 10:15 17,3 C 53 % 1014,4 hPa 0,0 l/m 2,6 km/h (1 Bft) S-SW 202 7,6 C 18,7 C 3,5 km/h (1 Bft)
23.10.2013 10:20 17,5 C 52 % 1014,4 hPa 0,0 l/m 2,3 km/h (1 Bft) SO 135 7,5 C 18,7 C 2,9 km/h (1 Bft)
23.10.2013 10:25 17,4 C 53 % 1015,1 hPa 0,0 l/m 1,4 km/h (1 Bft) SO 135 7,7 C 18,7 C 0,0 km/h (0 Bft)
23.10.2013 10:30 17,4 C 53 % 1015,1 hPa 0,0 l/m 1,4 km/h (1 Bft) S 180 7,7 C 18,7 C 4,8 km/h (1 Bft)
23.10.2013 10:35 17,3 C 54 % 1015,1 hPa 0,0 l/m 3,5 km/h (1 Bft) SO 135 7,9 C 18,7 C 6,9 km/h (2 Bft)
23.10.2013 10:40 17,4 C 53 % 1015,1 hPa 0,0 l/m 5,6 km/h (1 Bft) SO 135 7,7 C 18,7 C 8,2 km/h (2 Bft)
23.10.2013 10:45 17,6 C 53 % 1015,4 hPa 0,0 l/m 6,4 km/h (2 Bft) S 180 7,9 C 18,8 C 4,0 km/h (1 Bft)
23.10.2013 10:50 17,6 C 53 % 1015,4 hPa 0,0 l/m 5,8 km/h (2 Bft) S 180 7,9 C 18,9 C 5,8 km/h (2 Bft)
23.10.2013 10:55 17,6 C 54 % 1015,4 hPa 0,0 l/m 5,0 km/h (1 Bft) S 180 8,2 C 18,8 C 2,6 km/h (1 Bft)
23.10.2013 11:00 17,8 C 52 % 1015,4 hPa 0,0 l/m 4,8 km/h (1 Bft) W-SW 247 7,8 C 18,9 C 7,1 km/h (2 Bft)
23.10.2013 11:05 17,9 C 53 % 1015,6 hPa 0,0 l/m 4,7 km/h (1 Bft) S-SW 202 8,2 C 19,0 C 5,6 km/h (1 Bft)
23.10.2013 11:10 18,1 C 52 % 1015,6 hPa 0,0 l/m 5,5 km/h (1 Bft) S 180 8,1 C 19,2 C 15,8 km/h (3 Bft)
23.10.2013 11:15 18,5 C 53 % 1015,6 hPa 0,0 l/m 6,4 km/h (2 Bft) S-SO 157 8,7 C 19,9 C 7,6 km/h (2 Bft)
23.10.2013 11:20 18,4 C 54 % 1015,6 hPa 0,0 l/m 6,6 km/h (2 Bft) S-SW 202 8,9 C 19,8 C 6,8 km/h (2 Bft)
23.10.2013 11:25 18,2 C 55 % 1016,1 hPa 0,0 l/m 5,1 km/h (1 Bft) S 180 9,0 C 19,5 C 7,4 km/h (2 Bft)
23.10.2013 11:30 18,0 C 54 % 1016,1 hPa 0,0 l/m 5,1 km/h (1 Bft) S-SO 157 8,6 C 19,4 C 5,0 km/h (1 Bft)
23.10.2013 11:35 17,9 C 55 % 1016,1 hPa 0,0 l/m 5,6 km/h (1 Bft) S 180 8,7 C 19,1 C 3,7 km/h (1 Bft)
23.10.2013 11:40 17,9 C 55 % 1016,1 hPa 0,0 l/m 4,7 km/h (1 Bft) S-SW 202 8,7 C 19,1 C 3,5 km/h (1 Bft)
23.10.2013 11:45 17,8 C 56 % 1015,8 hPa 0,0 l/m 4,3 km/h (1 Bft) S 180 8,9 C 18,9 C 9,0 km/h (2 Bft)
23.10.2013 11:50 17,8 C 56 % 1015,8 hPa 0,0 l/m 4,3 km/h (1 Bft) NO 45 8,9 C 18,9 C 3,9 km/h (1 Bft)
23.10.2013 11:55 17,7 C 56 % 1015,8 hPa 0,0 l/m 5,0 km/h (1 Bft) S-SO 157 8,8 C 18,9 C 3,5 km/h (1 Bft)
23.10.2013 12:00 17,7 C 57 % 1015,8 hPa 0,0 l/m 5,6 km/h (1 Bft) S-SO 157 9,1 C 18,7 C 10,9 km/h (2 Bft)
23.10.2013 12:05 17,8 C 57 % 1016,1 hPa 0,0 l/m 5,6 km/h (1 Bft) SO 135 9,2 C 18,7 C 6,8 km/h (2 Bft)
23.10.2013 12:10 17,8 C 57 % 1016,1 hPa 0,0 l/m 5,6 km/h (1 Bft) SW 225 9,2 C 18,9 C 7,6 km/h (2 Bft)
23.10.2013 12:15 18,0 C 58 % 1016,1 hPa 0,0 l/m 6,4 km/h (2 Bft) S 180 9,6 C 18,9 C 10,8 km/h (2 Bft)
23.10.2013 12:18 17,8 C 58 % 1016,1 hPa 0,0 l/m 7,2 km/h (2 Bft) S-SW 202 9,4 C 18,4 C 13,0 km/h (3 Bft)
23.10.2013 12:20 17,8 C 58 % 1016,1 hPa 0,0 l/m 7,2 km/h (2 Bft) S-SW 202 9,4 C 18,4 C 13,0 km/h (3 Bft)
23.10.2013 12:25 17,7 C 59 % 1016,2 hPa 0,0 l/m 7,9 km/h (2 Bft) S 180 9,6 C 18,0 C 17,2 km/h (3 Bft)
23.10.2013 12:30 17,8 C 58 % 1016,2 hPa 0,0 l/m 7,7 km/h (2 Bft) S 180 9,4 C 18,1 C 10,9 km/h (2 Bft)
23.10.2013 12:35 17,8 C 58 % 1016,2 hPa 0,0 l/m 9,2 km/h (2 Bft) S-SW 202 9,4 C 17,5 C 19,2 km/h (3 Bft)
23.10.2013 12:40 17,9 C 58 % 1016,2 hPa 0,0 l/m 9,5 km/h (2 Bft) SO 135 9,5 C 17,4 C 7,7 km/h (2 Bft)
23.10.2013 12:45 17,9 C 59 % 1016,6 hPa 0,0 l/m 7,9 km/h (2 Bft) S-SO 157 9,8 C 18,0 C 20,6 km/h (4 Bft)
23.10.2013 12:50 17,8 C 58 % 1016,6 hPa 0,0 l/m 7,6 km/h (2 Bft) S-SO 157 9,4 C 18,2 C 23,2 km/h (4 Bft)
23.10.2013 12:55 17,7 C 59 % 1016,6 hPa 0,0 l/m 7,1 km/h (2 Bft) S-SO 157 9,6 C 18,2 C 6,1 km/h (2 Bft)
23.10.2013 13:00 17,7 C 60 % 1016,6 hPa 0,0 l/m 6,9 km/h (2 Bft) S-SO 157 9,8 C 18,3 C 12,9 km/h (3 Bft)
23.10.2013 13:05 17,7 C 60 % 1016,8 hPa 0,0 l/m 6,8 km/h (2 Bft) S 180 9,8 C 18,3 C 12,2 km/h (2 Bft)
23.10.2013 13:10 17,5 C 60 % 1016,8 hPa 0,0 l/m 8,9 km/h (2 Bft) S-SW 202 9,6 C 17,3 C 12,6 km/h (3 Bft)
23.10.2013 13:15 17,3 C 60 % 1016,8 hPa 0,0 l/m 9,8 km/h (2 Bft) S 180 9,5 C 16,7 C 16,6 km/h (3 Bft)
23.10.2013 13:20 17,3 C 60 % 1016,8 hPa 0,0 l/m 10,1 km/h (2 Bft) S-SW 202 9,5 C 16,4 C 12,6 km/h (3 Bft)
23.10.2013 13:25 17,0 C 61 % 1016,9 hPa 0,0 l/m 10,6 km/h (2 Bft) S-SO 157 9,4 C 16,1 C 12,1 km/h (2 Bft)
23.10.2013 13:30 16,9 C 62 % 1016,9 hPa 0,0 l/m 10,5 km/h (2 Bft) S 180 9,6 C 15,9 C 15,6 km/h (3 Bft)
23.10.2013 13:35 16,7 C 63 % 1016,9 hPa 0,0 l/m 10,5 km/h (2 Bft) S 180 9,6 C 15,6 C 12,2 km/h (2 Bft)
23.10.2013 13:40 16,5 C 64 % 1016,9 hPa 0,0 l/m 11,4 km/h (2 Bft) S 180 9,7 C 15,0 C 15,6 km/h (3 Bft)
23.10.2013 13:45 16,8 C 64 % 1017,4 hPa 0,0 l/m 12,1 km/h (2 Bft) S 180 10,0 C 14,7 C 11,9 km/h (2 Bft)
23.10.2013 13:50 16,9 C 64 % 1017,4 hPa 0,0 l/m 11,9 km/h (2 Bft) S-SO 157 10,0 C 15,1 C 14,8 km/h (3 Bft)
23.10.2013 13:55 17,9 C 60 % 1017,4 hPa 0,0 l/m 10,8 km/h (2 Bft) S-SO 157 10,0 C 16,6 C 12,7 km/h (3 Bft)
23.10.2013 14:00 18,1 C 59 % 1017,4 hPa 0,0 l/m 8,9 km/h (2 Bft) SW 225 10,0 C 18,9 C 6,8 km/h (2 Bft)
23.10.2013 14:05 17,9 C 61 % 1017,7 hPa 0,0 l/m 9,2 km/h (2 Bft) S-SO 157 10,3 C 19,9 C 16,9 km/h (3 Bft)
23.10.2013 14:10 17,2 C 62 % 1017,7 hPa 0,0 l/m 10,6 km/h (2 Bft) S 180 9,9 C 18,6 C 16,9 km/h (3 Bft)
23.10.2013 14:15 16,6 C 65 % 1017,7 hPa 0,0 l/m 10,8 km/h (2 Bft) SO 135 10,0 C 16,5 C 13,0 km/h (3 Bft)
23.10.2013 14:20 16,4 C 66 % 1017,7 hPa 0,0 l/m 10,0 km/h (2 Bft) S-SW 202 10,0 C 16,1 C 6,9 km/h (2 Bft)
23.10.2013 14:25 16,1 C 67 % 1017,6 hPa 0,0 l/m 9,5 km/h (2 Bft) SW 225 10,0 C 15,4 C 9,0 km/h (2 Bft)
23.10.2013 14:30 15,9 C 69 % 1017,6 hPa 0,0 l/m 8,5 km/h (2 Bft) S 180 10,2 C 15,5 C 13,5 km/h (3 Bft)
23.10.2013 14:35 15,8 C 70 % 1017,6 hPa 0,0 l/m 8,9 km/h (2 Bft) S-SW 202 10,3 C 15,0 C 9,0 km/h (2 Bft)
23.10.2013 14:40 15,6 C 71 % 1017,6 hPa 0,0 l/m 9,0 km/h (2 Bft) S 180 10,4 C 14,5 C 6,4 km/h (2 Bft)
23.10.2013 14:45 15,3 C 72 % 1017,7 hPa 0,0 l/m 8,5 km/h (2 Bft) SO 135 10,3 C 14,3 C 11,4 km/h (2 Bft)
23.10.2013 14:50 15,1 C 73 % 1017,7 hPa 0,0 l/m 8,2 km/h (2 Bft) S-SO 157 10,3 C 14,3 C 4,2 km/h (1 Bft)
23.10.2013 14:55 15,0 C 74 % 1017,7 hPa 0,0 l/m 7,4 km/h (2 Bft) S-SO 157 10,4 C 14,7 C 9,8 km/h (2 Bft)
23.10.2013 15:00 14,9 C 75 % 1017,7 hPa 0,0 l/m 7,1 km/h (2 Bft) O-NO 67 10,5 C 14,9 C 5,6 km/h (1 Bft)
23.10.2013 15:05 14,8 C 76 % 1018,0 hPa 0,0 l/m 6,8 km/h (2 Bft) S-SW 202 10,6 C 15,0 C 3,4 km/h (1 Bft)
23.10.2013 15:10 14,5 C 76 % 1018,0 hPa 0,0 l/m 5,3 km/h (1 Bft) S-SO 157 10,3 C 14,9 C 5,5 km/h (1 Bft)
23.10.2013 15:15 14,1 C 78 % 1018,0 hPa 0,0 l/m 5,5 km/h (1 Bft) S 180 10,3 C 14,2 C 11,6 km/h (2 Bft)
23.10.2013 15:20 14,0 C 79 % 1018,0 hPa 0,0 l/m 6,4 km/h (2 Bft) S 180 10,4 C 13,9 C 7,2 km/h (2 Bft)
23.10.2013 15:25 13,7 C 79 % 1018,6 hPa 0,0 l/m 5,6 km/h (1 Bft) S 180 10,1 C 13,6 C 3,1 km/h (1 Bft)
23.10.2013 15:30 13,5 C 81 % 1018,6 hPa 0,0 l/m 5,5 km/h (1 Bft) S 180 10,3 C 13,6 C 4,5 km/h (1 Bft)
23.10.2013 15:35 13,2 C 83 % 1018,6 hPa 0,0 l/m 5,5 km/h (1 Bft) S 180 10,4 C 13,6 C 4,5 km/h (1 Bft)
23.10.2013 15:40 13,0 C 85 % 1018,6 hPa 0,0 l/m 5,5 km/h (1 Bft) S 180 10,5 C 13,6 C 4,5 km/h (1 Bft)
23.10.2013 15:45 12,9 C 88 % 1018,8 hPa 0,0 l/m 0,0 km/h (0 Bft) S 180 11,0 C 13,6 C 0,0 km/h (0 Bft)
23.10.2013 15:50 12,9 C 89 % 1018,8 hPa 0,0 l/m 0,0 km/h (0 Bft) S 180 11,1 C 13,6 C 0,0 km/h (0 Bft)
23.10.2013 15:55 12,8 C 90 % 1018,8 hPa 0,7 l/m 0,0 km/h (0 Bft) S 180 11,2 C 13,6 C 0,0 km/h (0 Bft)
23.10.2013 16:00 12,7 C 91 % 1018,8 hPa 0,0 l/m 0,0 km/h (0 Bft) S 180 11,3 C 13,6 C 0,0 km/h (0 Bft)
23.10.2013 16:05 12,7 C 91 % 1018,6 hPa 0,0 l/m 0,0 km/h (0 Bft) S 180 11,3 C 13,6 C 0,0 km/h (0 Bft)
23.10.2013 16:10 12,7 C 92 % 1018,6 hPa 0,0 l/m 0,0 km/h (0 Bft) S 180 11,4 C 13,6 C 0,0 km/h (0 Bft)
23.10.2013 16:15 13,0 C 91 % 1018,6 hPa 0,0 l/m 0,0 km/h (0 Bft) S 180 11,6 C 13,6 C 0,0 km/h (0 Bft)
23.10.2013 16:20 13,1 C 91 % 1018,6 hPa 0,0 l/m 0,0 km/h (0 Bft) S 180 11,7 C 13,6 C 0,0 km/h (0 Bft)
23.10.2013 16:25 13,0 C 91 % 1018,4 hPa 0,0 l/m 0,0 km/h (0 Bft) S 180 11,6 C 13,6 C 0,0 km/h (0 Bft)
23.10.2013 16:30 13,0 C 91 % 1018,4 hPa 0,7 l/m 0,0 km/h (0 Bft) S 180 11,6 C 13,6 C 0,0 km/h (0 Bft)
23.10.2013 16:35 13,1 C 92 % 1018,4 hPa 0,0 l/m 0,0 km/h (0 Bft) S 180 11,8 C 13,6 C 0,0 km/h (0 Bft)
23.10.2013 16:40 13,2 C 92 % 1018,4 hPa 0,0 l/m 0,0 km/h (0 Bft) S 180 11,9 C 13,6 C 0,0 km/h (0 Bft)
23.10.2013 16:45 13,3 C 92 % 1018,4 hPa 0,0 l/m 0,0 km/h (0 Bft) S 180 12,0 C 13,6 C 0,0 km/h (0 Bft)
23.10.2013 16:50 13,2 C 92 % 1018,4 hPa 0,0 l/m 0,0 km/h (0 Bft) S 180 11,9 C 13,6 C 0,0 km/h (0 Bft)
23.10.2013 16:55 12,9 C 93 % 1018,4 hPa 0,0 l/m 0,0 km/h (0 Bft) S 180 11,8 C 13,6 C 0,0 km/h (0 Bft)
23.10.2013 17:00 12,8 C 93 % 1018,4 hPa 0,0 l/m 0,0 km/h (0 Bft) S 180 11,7 C 13,6 C 0,0 km/h (0 Bft)
23.10.2013 17:05 12,7 C 93 % 1018,4 hPa 0,0 l/m 0,0 km/h (0 Bft) S 180 11,6 C 13,6 C 0,0 km/h (0 Bft)
23.10.2013 17:10 12,7 C 93 % 1018,4 hPa 0,0 l/m 0,0 km/h (0 Bft) S 180 11,6 C 13,6 C 0,0 km/h (0 Bft)
23.10.2013 17:15 12,5 C 93 % 1018,4 hPa 0,0 l/m 0,0 km/h (0 Bft) S 180 11,4 C 13,6 C 0,0 km/h (0 Bft)
23.10.2013 17:20 12,5 C 93 % 1018,4 hPa 0,0 l/m 0,0 km/h (0 Bft) S 180 11,4 C 13,6 C 0,0 km/h (0 Bft)
23.10.2013 17:25 12,3 C 93 % 1018,7 hPa 0,0 l/m 0,0 km/h (0 Bft) S 180 11,2 C 13,6 C 0,0 km/h (0 Bft)
23.10.2013 17:30 12,3 C 93 % 1018,7 hPa 0,0 l/m 0,0 km/h (0 Bft) S 180 11,2 C 13,6 C 0,0 km/h (0 Bft)
23.10.2013 17:35 12,2 C 93 % 1018,7 hPa 0,0 l/m 0,0 km/h (0 Bft) S 180 11,1 C 13,6 C 0,0 km/h (0 Bft)
23.10.2013 17:40 12,1 C 93 % 1018,7 hPa 0,0 l/m 0,0 km/h (0 Bft) S 180 11,0 C 13,6 C 0,0 km/h (0 Bft)
23.10.2013 17:45 12,1 C 93 % 1018,6 hPa 0,0 l/m 0,0 km/h (0 Bft) S 180 11,0 C 13,6 C 0,0 km/h (0 Bft)
23.10.2013 17:50 12,0 C 93 % 1018,6 hPa 0,0 l/m 0,0 km/h (0 Bft) S 180 10,9 C 13,6 C 0,0 km/h (0 Bft)
23.10.2013 17:55 12,0 C 93 % 1018,6 hPa 0,0 l/m 0,0 km/h (0 Bft) S 180 10,9 C 13,6 C 0,0 km/h (0 Bft)
23.10.2013 18:00 11,9 C 94 % 1018,6 hPa 0,0 l/m 0,0 km/h (0 Bft) S 180 11,0 C 13,6 C 0,0 km/h (0 Bft)
23.10.2013 18:05 11,8 C 94 % 1018,6 hPa 0,0 l/m 0,0 km/h (0 Bft) S 180 10,9 C 13,6 C 0,0 km/h (0 Bft)
23.10.2013 18:10 11,7 C 94 % 1018,6 hPa 0,0 l/m 0,0 km/h (0 Bft) S 180 10,8 C 13,6 C 0,0 km/h (0 Bft)
23.10.2013 18:15 11,7 C 94 % 1018,6 hPa 0,0 l/m 0,0 km/h (0 Bft) S 180 10,8 C 13,6 C 0,0 km/h (0 Bft)
23.10.2013 18:18 11,7 C 94 % 1018,6 hPa 0,0 l/m 0,0 km/h (0 Bft) S 180 10,8 C 13,6 C 0,0 km/h (0 Bft)
23.10.2013 18:20 11,7 C 94 % 1018,6 hPa 0,0 l/m 0,0 km/h (0 Bft) S 180 10,8 C 13,6 C 0,0 km/h (0 Bft)
23.10.2013 18:25 11,6 C 94 % 1018,8 hPa 0,0 l/m 0,0 km/h (0 Bft) S 180 10,7 C 13,6 C 0,0 km/h (0 Bft)
23.10.2013 18:30 11,6 C 94 % 1018,8 hPa 0,0 l/m 0,0 km/h (0 Bft) S 180 10,7 C 13,6 C 0,0 km/h (0 Bft)
23.10.2013 18:35 11,5 C 94 % 1018,8 hPa 0,0 l/m 0,0 km/h (0 Bft) S 180 10,6 C 13,6 C 0,0 km/h (0 Bft)
23.10.2013 18:40 11,5 C 94 % 1018,8 hPa 0,7 l/m 0,0 km/h (0 Bft) S 180 10,6 C 13,6 C 0,0 km/h (0 Bft)
23.10.2013 18:45 11,4 C 94 % 1019,2 hPa 0,0 l/m 0,0 km/h (0 Bft) S 180 10,5 C 13,6 C 0,0 km/h (0 Bft)
23.10.2013 18:50 11,3 C 94 % 1019,2 hPa 0,0 l/m 0,0 km/h (0 Bft) S 180 10,4 C 13,6 C 0,0 km/h (0 Bft)
23.10.2013 18:55 11,2 C 94 % 1019,2 hPa 0,0 l/m 0,0 km/h (0 Bft) S 180 10,3 C 13,6 C 0,0 km/h (0 Bft)
23.10.2013 19:00 11,0 C 94 % 1019,2 hPa 0,0 l/m 0,0 km/h (0 Bft) S 180 10,1 C 13,6 C 0,0 km/h (0 Bft)
23.10.2013 19:05 10,9 C 94 % 1019,4 hPa 0,7 l/m 0,0 km/h (0 Bft) S 180 10,0 C 13,6 C 0,0 km/h (0 Bft)
23.10.2013 19:10 10,9 C 94 % 1019,4 hPa 0,0 l/m 0,0 km/h (0 Bft) S 180 10,0 C 13,6 C 0,0 km/h (0 Bft)
23.10.2013 19:15 10,7 C 94 % 1019,4 hPa 0,0 l/m 0,0 km/h (0 Bft) S 180 9,8 C 13,6 C 0,0 km/h (0 Bft)
23.10.2013 19:20 10,6 C 94 % 1019,4 hPa 0,0 l/m 0,0 km/h (0 Bft) S 180 9,7 C 13,6 C 0,0 km/h (0 Bft)
23.10.2013 19:25 10,6 C 94 % 1019,4 hPa 0,0 l/m 0,0 km/h (0 Bft) S 180 9,7 C 13,6 C 0,0 km/h (0 Bft)
23.10.2013 19:30 10,6 C 94 % 1019,4 hPa 0,0 l/m 0,0 km/h (0 Bft) S 180 9,7 C 13,6 C 0,0 km/h (0 Bft)
23.10.2013 19:35 10,5 C 94 % 1019,4 hPa 0,0 l/m 0,0 km/h (0 Bft) S 180 9,6 C 13,6 C 0,0 km/h (0 Bft)
23.10.2013 19:40 10,5 C 94 % 1019,4 hPa 0,0 l/m 0,0 km/h (0 Bft) S 180 9,6 C 13,6 C 0,0 km/h (0 Bft)
23.10.2013 19:45 10,5 C 94 % 1019,3 hPa 0,0 l/m 0,0 km/h (0 Bft) S 180 9,6 C 13,6 C 0,0 km/h (0 Bft)
23.10.2013 19:50 10,5 C 94 % 1019,3 hPa 0,0 l/m 0,0 km/h (0 Bft) S 180 9,6 C 13,6 C 0,0 km/h (0 Bft)
23.10.2013 19:55 10,4 C 94 % 1019,3 hPa 0,0 l/m 0,0 km/h (0 Bft) S 180 9,5 C 13,6 C 0,0 km/h (0 Bft)
23.10.2013 20:00 10,4 C 94 % 1019,3 hPa 0,0 l/m 0,0 km/h (0 Bft) S 180 9,5 C 13,6 C 0,0 km/h (0 Bft)
23.10.2013 20:05 10,4 C 94 % 1018,9 hPa 0,0 l/m 0,0 km/h (0 Bft) S 180 9,5 C 13,6 C 0,0 km/h (0 Bft)
23.10.2013 20:10 10,4 C 94 % 1018,9 hPa 0,0 l/m 0,0 km/h (0 Bft) S 180 9,5 C 13,6 C 0,0 km/h (0 Bft)
23.10.2013 20:15 10,4 C 94 % 1018,9 hPa 1,4 l/m 0,0 km/h (0 Bft) S 180 9,5 C 13,6 C 0,0 km/h (0 Bft)
23.10.2013 20:20 10,4 C 94 % 1018,9 hPa 0,0 l/m 0,0 km/h (0 Bft) S 180 9,5 C 13,6 C 0,0 km/h (0 Bft)
23.10.2013 20:25 10,4 C 95 % 1018,8 hPa 0,0 l/m 0,0 km/h (0 Bft) S 180 9,6 C 13,6 C 0,0 km/h (0 Bft)
23.10.2013 20:30 10,4 C 95 % 1018,8 hPa 0,0 l/m 1,3 km/h (1 Bft) O-NO 67 9,6 C 10,6 C 2,4 km/h (1 Bft)
23.10.2013 20:35 10,4 C 95 % 1018,8 hPa 0,0 l/m 1,6 km/h (1 Bft) N-NO 22 9,6 C 10,6 C 0,0 km/h (0 Bft)
23.10.2013 20:40 10,4 C 95 % 1018,8 hPa 0,0 l/m 1,1 km/h (1 Bft) NO 45 9,6 C 10,6 C 0,0 km/h (0 Bft)
23.10.2013 20:45 10,4 C 95 % 1019,1 hPa 0,0 l/m 1,0 km/h (0 Bft) NO 45 9,6 C 10,6 C 2,4 km/h (1 Bft)
23.10.2013 20:50 10,4 C 95 % 1019,1 hPa 0,0 l/m 1,1 km/h (1 Bft) N-NO 22 9,6 C 10,6 C 0,0 km/h (0 Bft)
23.10.2013 20:55 10,4 C 95 % 1019,1 hPa 0,0 l/m 1,0 km/h (0 Bft) N-NO 22 9,6 C 10,7 C 0,0 km/h (0 Bft)
23.10.2013 21:00 10,4 C 95 % 1019,1 hPa 0,0 l/m 1,0 km/h (0 Bft) O 90 9,6 C 10,7 C 2,1 km/h (1 Bft)
23.10.2013 21:05 10,4 C 95 % 1019,1 hPa 0,0 l/m 1,1 km/h (1 Bft) S-SO 157 9,6 C 10,7 C 2,9 km/h (1 Bft)
23.10.2013 21:10 10,4 C 95 % 1019,1 hPa 0,0 l/m 1,4 km/h (1 Bft) S 180 9,6 C 10,7 C 3,2 km/h (1 Bft)
23.10.2013 21:15 10,4 C 95 % 1019,1 hPa 0,0 l/m 3,1 km/h (1 Bft) SO 135 9,6 C 10,6 C 3,9 km/h (1 Bft)
23.10.2013 21:20 10,4 C 95 % 1019,1 hPa 0,0 l/m 4,0 km/h (1 Bft) S-SW 202 9,6 C 10,6 C 3,4 km/h (1 Bft)
23.10.2013 21:25 10,3 C 95 % 1019,4 hPa 0,0 l/m 3,2 km/h (1 Bft) SW 225 9,5 C 10,6 C 0,0 km/h (0 Bft)
23.10.2013 21:30 10,3 C 95 % 1019,4 hPa 0,0 l/m 1,3 km/h (1 Bft) O 90 9,5 C 10,6 C 2,3 km/h (1 Bft)
23.10.2013 21:35 10,3 C 95 % 1019,4 hPa 0,0 l/m 0,5 km/h (0 Bft) NO 45 9,5 C 10,6 C 2,4 km/h (1 Bft)
23.10.2013 21:40 10,3 C 95 % 1019,4 hPa 0,0 l/m 0,5 km/h (0 Bft) NO 45 9,5 C 10,6 C 0,0 km/h (0 Bft)
23.10.2013 21:45 10,3 C 95 % 1019,8 hPa 0,0 l/m 0,5 km/h (0 Bft) O 90 9,5 C 10,6 C 0,0 km/h (0 Bft)
23.10.2013 21:50 10,3 C 95 % 1019,8 hPa 0,0 l/m 0,5 km/h (0 Bft) NO 45 9,5 C 10,6 C 0,0 km/h (0 Bft)
23.10.2013 21:55 10,3 C 95 % 1019,8 hPa 0,0 l/m 0,5 km/h (0 Bft) NO 45 9,5 C 10,6 C 0,0 km/h (0 Bft)
23.10.2013 22:00 10,3 C 95 % 1019,8 hPa 2,7 l/m 0,3 km/h (0 Bft) NO 45 9,5 C 10,6 C 0,0 km/h (0 Bft)
23.10.2013 22:05 10,3 C 95 % 1020,1 hPa 0,0 l/m 0,2 km/h (0 Bft) N-NW 337 9,5 C 10,6 C 0,0 km/h (0 Bft)
23.10.2013 22:10 10,3 C 95 % 1020,1 hPa 0,0 l/m 0,2 km/h (0 Bft) NW 315 9,5 C 10,6 C 0,0 km/h (0 Bft)
23.10.2013 22:15 10,4 C 95 % 1020,1 hPa 0,0 l/m 0,5 km/h (0 Bft) S 180 9,6 C 10,6 C 0,0 km/h (0 Bft)
23.10.2013 22:20 10,4 C 95 % 1020,1 hPa 0,0 l/m 1,4 km/h (1 Bft) N-NW 337 9,6 C 10,6 C 3,5 km/h (1 Bft)
23.10.2013 22:25 10,4 C 95 % 1019,9 hPa 0,7 l/m 1,6 km/h (1 Bft) N-NO 22 9,6 C 10,6 C 0,0 km/h (0 Bft)
23.10.2013 22:30 10,3 C 95 % 1019,9 hPa 0,0 l/m 1,4 km/h (1 Bft) NO 45 9,5 C 10,6 C 3,1 km/h (1 Bft)
23.10.2013 22:35 10,3 C 95 % 1019,9 hPa 0,0 l/m 1,8 km/h (1 Bft) N 360 9,5 C 10,6 C 3,2 km/h (1 Bft)
23.10.2013 22:40 10,3 C 95 % 1019,9 hPa 0,0 l/m 2,1 km/h (1 Bft) W-SW 247 9,5 C 10,6 C 3,1 km/h (1 Bft)
23.10.2013 22:45 10,3 C 95 % 1019,8 hPa 0,0 l/m 2,9 km/h (1 Bft) W-NW 292 9,5 C 10,6 C 2,6 km/h (1 Bft)
23.10.2013 22:50 10,2 C 95 % 1019,8 hPa 0,0 l/m 2,6 km/h (1 Bft) W-NW 292 9,4 C 10,6 C 3,7 km/h (1 Bft)
23.10.2013 22:55 10,2 C 95 % 1019,8 hPa 0,0 l/m 2,1 km/h (1 Bft) W 270 9,4 C 10,6 C 3,1 km/h (1 Bft)
23.10.2013 23:00 10,3 C 95 % 1019,8 hPa 0,0 l/m 2,4 km/h (1 Bft) W-SW 247 9,5 C 10,6 C 4,2 km/h (1 Bft)
23.10.2013 23:05 10,2 C 95 % 1019,6 hPa 0,0 l/m 2,9 km/h (1 Bft) W-NW 292 9,4 C 10,6 C 4,8 km/h (1 Bft)
23.10.2013 23:10 10,2 C 95 % 1019,6 hPa 0,0 l/m 2,7 km/h (1 Bft) N 360 9,4 C 10,5 C 3,4 km/h (1 Bft)
23.10.2013 23:15 10,2 C 95 % 1019,6 hPa 0,0 l/m 2,9 km/h (1 Bft) W-SW 247 9,4 C 10,6 C 2,9 km/h (1 Bft)
23.10.2013 23:20 10,2 C 95 % 1019,6 hPa 0,0 l/m 2,9 km/h (1 Bft) SW 225 9,4 C 10,6 C 3,5 km/h (1 Bft)
23.10.2013 23:25 10,2 C 95 % 1019,3 hPa 0,0 l/m 2,7 km/h (1 Bft) W-SW 247 9,4 C 10,6 C 6,0 km/h (2 Bft)
23.10.2013 23:30 10,2 C 95 % 1019,3 hPa 0,0 l/m 2,7 km/h (1 Bft) NO 45 9,4 C 10,6 C 3,1 km/h (1 Bft)
23.10.2013 23:35 10,1 C 95 % 1019,3 hPa 0,0 l/m 2,9 km/h (1 Bft) W 270 9,3 C 10,6 C 2,7 km/h (1 Bft)
23.10.2013 23:40 10,1 C 95 % 1019,3 hPa 0,0 l/m 2,7 km/h (1 Bft) W-SW 247 9,3 C 10,6 C 5,3 km/h (1 Bft)
23.10.2013 23:45 10,1 C 95 % 1019,0 hPa 0,0 l/m 2,1 km/h (1 Bft) W-NW 292 9,3 C 10,6 C 1,8 km/h (1 Bft)
23.10.2013 23:50 10,0 C 95 % 1019,0 hPa 0,0 l/m 2,1 km/h (1 Bft) W-SW 247 9,2 C 10,6 C 5,5 km/h (1 Bft)
23.10.2013 23:55 10,0 C 95 % 1019,0 hPa 0,0 l/m 3,1 km/h (1 Bft) O-SO 112 9,2 C 10,6 C 2,6 km/h (1 Bft)
_ Min-Zeit 23:55 04:35 05:00 - 20:25 - - 02:05 23:10 22:25
Minimum _ 10,0 C 43 % 1012,4 hPa - 0,0 km/h (0 Bft) - - 5,4 C 10,5 C 0,0 km/h (0 Bft)
_ Max-Zeit 11:15 23:55 22:20 22:00 13:45 - - 16:45 11:15 12:50
Maximum _ 18,5 C 95 % 1020,1 hPa 2,7 l/m 12,1 km/h
S (2 Bft)
- - 12,0 C 19,9 C 23,2 km/h
S-SO (4 Bft)
Durchschnitt _ 14,9 C 67 % 1016,1 hPa #7,6 l/m 3,1 km/h (1 Bft) S - 8,3 C 15,9 C 4,1 km/h (1 Bft)